owner,sensor,date,latitude,longitude,vertical_datum,wind_speed,wind_to_direction,wind_speed_of_gust,qcFlag 
TABS,ioos:station:wmo:42044:1,2016-08-01T00:00:00Z,26.1914,-97.0507,0.0,6.470741843,148.7176299,8.25,'11111222,11111222,11111222' 
TABS,ioos:station:wmo:42044:1,2016-08-01T00:30:00Z,26.1914,-97.0507,0.0,7.056245461,144.5758854,8.63,'11111222,11111222,11111222' 
TABS,ioos:station:wmo:42044:1,2016-08-01T01:00:00Z,26.1914,-97.0507,0.0,7.148881031,147.5106533,9.05,'11111222,11111222,11111222' 
TABS,ioos:station:wmo:42044:1,2016-08-01T01:30:00Z,26.1914,-97.0507,0.0,6.878720811,145.6633629,8.34,'11111222,11111222,11111222' 
TABS,ioos:station:wmo:42044:1,2016-08-01T02:00:00Z,26.1914,-97.0507,0.0,7.103759568,145.4377666,8.94,'11111222,11111222,11111222' 
TABS,ioos:station:wmo:42044:1,2016-08-01T02:30:00Z,26.1914,-97.0507,0.0,7.319269089,146.3102217,8.95,'11111222,11111222,11111222' 
TABS,ioos:station:wmo:42044:1,2016-08-01T03:00:00Z,26.1914,-97.0507,0.0,6.662739677,147.1927243,8.61,'11111222,11111222,11111222' 
TABS,ioos:station:wmo:42044:1,2016-08-01T03:30:00Z,26.1914,-97.0507,0.0,6.498653707,145.723347,8.26,'11111222,11111222,11111222' 
TABS,ioos:station:wmo:42044:1,2016-08-01T04:00:00Z,26.1914,-97.0507,0.0,6.331840175,148.6951154,7.89,'11111222,11111222,11111222' 
TABS,ioos:station:wmo:42044:1,2016-08-01T04:30:00Z,26.1914,-97.0507,0.0,6.799014634,151.0602654,8.22,'11111222,11111222,11111222' 
TABS,ioos:station:wmo:42044:1,2016-08-01T05:00:00Z,26.1914,-97.0507,0.0,6.737069096,152.0278426,8.2,'11111222,11111222,11111222' 
TABS,ioos:station:wmo:42044:1,2016-08-01T05:30:00Z,26.1914,-97.0507,0.0,6.454184689,154.3880757,8.28,'11111222,11111222,11111222' 
TABS,ioos:station:wmo:42044:1,2016-08-01T06:00:00Z,26.1914,-97.0507,0.0,6.45291407,158.165876,7.81,'11111222,11111222,11111222' 
TABS,ioos:station:wmo:42044:1,2016-08-01T06:30:00Z,26.1914,-97.0507,0.0,6.89,157.3803984,8.47,'11111222,11111222,11111222' 
TABS,ioos:station:wmo:42044:1,2016-08-01T07:00:00Z,26.1914,-97.0507,0.0,6.937045481,159.318544,8.38,'11111222,11111222,11111222' 
TABS,ioos:station:wmo:42044:1,2016-08-01T07:30:00Z,26.1914,-97.0507,0.0,6.72110854,164.2890449,8.37,'11111222,11111222,11111222' 
TABS,ioos:station:wmo:42044:1,2016-08-01T08:00:00Z,26.1914,-97.0507,0.0,6.7085766,167.5177503,8.39,'11111222,11111222,11111222' 
TABS,ioos:station:wmo:42044:1,2016-08-01T08:30:00Z,26.1914,-97.0507,0.0,6.039180408,169.6020451,7.26,'11111222,11111222,11111222' 
TABS,ioos:station:wmo:42044:1,2016-08-01T09:00:00Z,26.1914,-97.0507,0.0,5.820738785,168.8061311,6.93,'11111222,11111222,11111222' 
TABS,ioos:station:wmo:42044:1,2016-08-01T09:30:00Z,26.1914,-97.0507,0.0,5.671066919,171.5843657,6.53,'11111222,11111222,11111222' 
TABS,ioos:station:wmo:42044:1,2016-08-01T10:00:00Z,26.1914,-97.0507,0.0,5.384069093,170.4854258,6.57,'11111222,11111222,11111222' 
TABS,ioos:station:wmo:42044:1,2016-08-01T10:30:00Z,26.1914,-97.0507,0.0,5.257537446,170.8066497,6.64,'11111222,11111222,11111222' 
TABS,ioos:station:wmo:42044:1,2016-08-01T11:00:00Z,26.1914,-97.0507,0.0,5.117430996,167.7021678,6.09,'11111222,11111222,11111222' 
TABS,ioos:station:wmo:42044:1,2016-08-01T11:30:00Z,26.1914,-97.0507,0.0,4.918617692,168.5075438,5.8,'11111222,11111222,11111222' 
TABS,ioos:station:wmo:42044:1,2016-08-01T12:00:00Z,26.1914,-97.0507,0.0,4.76777726,171.0713372,5.84,'11111222,11111222,11111222' 
TABS,ioos:station:wmo:42044:1,2016-08-01T12:30:00Z,26.1914,-97.0507,0.0,5.109804302,167.5687287,6.08,'11111222,11111222,11111222' 
TABS,ioos:station:wmo:42044:1,2016-08-01T13:00:00Z,26.1914,-97.0507,0.0,4.736296021,169.0461734,5.46,'11111222,11111222,11111222' 
TABS,ioos:station:wmo:42044:1,2016-08-01T13:30:00Z,26.1914,-97.0507,0.0,3.950923943,165.788139,4.63,'11111222,11111222,11111222' 
TABS,ioos:station:wmo:42044:1,2016-08-01T14:00:00Z,26.1914,-97.0507,0.0,0.600083328,156.4255594,3.87,'11111222,11111222,11111222' 
TABS,ioos:station:wmo:42044:1,2016-08-01T14:30:00Z,26.1914,-97.0507,0.0,3.207319753,154.7135732,4.1,'11111222,11111222,11111222' 
TABS,ioos:station:wmo:42044:1,2016-08-01T15:00:00Z,26.1914,-97.0507,0.0,0.882043083,147.0308837,4.07,'11111222,11111222,11111222' 
TABS,ioos:station:wmo:42044:1,2016-08-01T15:30:00Z,26.1914,-97.0507,0.0,3.556416736,147.5167379,4.34,'11111222,11111222,11111222' 
TABS,ioos:station:wmo:42044:1,2016-08-01T16:00:00Z,26.1914,-97.0507,0.0,3.580502758,144.0905714,4.27,'11111222,11111222,11111222' 
TABS,ioos:station:wmo:42044:1,2016-08-01T16:30:00Z,26.1914,-97.0507,0.0,3.960656511,145.9089983,4.68,'11111222,11111222,11111222' 
TABS,ioos:station:wmo:42044:1,2016-08-01T17:00:00Z,26.1914,-97.0507,0.0,3.771962354,146.3523509,4.49,'11111222,11111222,11111222' 
TABS,ioos:station:wmo:42044:1,2016-08-01T17:30:00Z,26.1914,-97.0507,0.0,3.976040744,142.8710141,4.72,'11111222,11111222,11111222' 
TABS,ioos:station:wmo:42044:1,2016-08-01T18:00:00Z,26.1914,-97.0507,0.0,4.073818847,136.1938023,4.91,'11111222,11111222,11111222' 
TABS,ioos:station:wmo:42044:1,2016-08-01T18:30:00Z,26.1914,-97.0507,0.0,4.216277979,136.7301953,4.91,'11111222,11111222,11111222' 
TABS,ioos:station:wmo:42044:1,2016-08-01T19:00:00Z,26.1914,-97.0507,0.0,4.179007059,134.9033688,4.93,'11111222,11111222,11111222' 
TABS,ioos:station:wmo:42044:1,2016-08-01T19:30:00Z,26.1914,-97.0507,0.0,4.615733961,129.7264321,5.41,'11111222,11111222,11111222' 
TABS,ioos:station:wmo:42044:1,2016-08-01T20:00:00Z,26.1914,-97.0507,0.0,4.956288934,132.0562762,5.92,'11111222,11111222,11111222' 
TABS,ioos:station:wmo:42044:1,2016-08-01T20:30:00Z,26.1914,-97.0507,0.0,4.774861255,133.3879751,5.85,'11111222,11111222,11111222' 
TABS,ioos:station:wmo:42044:1,2016-08-01T21:00:00Z,26.1914,-97.0507,0.0,4.855182798,129.9872137,5.82,'11111222,11111222,11111222' 
TABS,ioos:station:wmo:42044:1,2016-08-01T21:30:00Z,26.1914,-97.0507,0.0,4.988647111,131.2618804,6.04,'11111222,11111222,11111222' 
TABS,ioos:station:wmo:42044:1,2016-08-01T22:00:00Z,26.1914,-97.0507,0.0,5.431482302,133.9559795,6.75,'11111222,11111222,11111222' 
TABS,ioos:station:wmo:42044:1,2016-08-01T22:30:00Z,26.1914,-97.0507,0.0,4.093519268,130.3435339,6.66,'11111222,11111222,11111222' 
TABS,ioos:station:wmo:42044:1,2016-08-01T23:00:00Z,26.1914,-97.0507,0.0,5.369851022,133.1137894,7.05,'11111222,11111222,11111222' 
TABS,ioos:station:wmo:42044:1,2016-08-01T23:30:00Z,26.1914,-97.0507,0.0,5.584693367,125.9673671,7.1,'11111222,11111222,11111222' 
TABS,ioos:station:wmo:42044:1,2016-08-02T00:00:00Z,26.1914,-97.0507,0.0,6.042929753,127.875316,7.22,'11111222,11111222,11111222' 
TABS,ioos:station:wmo:42044:1,2016-08-02T00:30:00Z,26.1914,-97.0507,0.0,5.013790981,125.3387503,6.19,'11111222,11111222,11111222' 
TABS,ioos:station:wmo:42044:1,2016-08-02T01:00:00Z,26.1914,-97.0507,0.0,5.722805256,127.8314113,7.0,'11111222,11111222,11111222' 
TABS,ioos:station:wmo:42044:1,2016-08-02T01:30:00Z,26.1914,-97.0507,0.0,5.333104162,133.6327749,7.01,'11111222,11111222,11111222' 
TABS,ioos:station:wmo:42044:1,2016-08-02T02:00:00Z,26.1914,-97.0507,0.0,4.797676521,138.8031472,5.77,'11111222,11111222,11111222' 
TABS,ioos:station:wmo:42044:1,2016-08-02T02:30:00Z,26.1914,-97.0507,0.0,4.982178238,140.7837186,6.28,'11111222,11111222,11111222' 
TABS,ioos:station:wmo:42044:1,2016-08-02T03:00:00Z,26.1914,-97.0507,0.0,5.026211297,137.7419564,5.81,'11111222,11111222,11111222' 
TABS,ioos:station:wmo:42044:1,2016-08-02T03:30:00Z,26.1914,-97.0507,0.0,4.922936116,138.3764337,5.89,'11111222,11111222,11111222' 
TABS,ioos:station:wmo:42044:1,2016-08-02T04:00:00Z,26.1914,-97.0507,0.0,4.95201979,138.5205045,6.27,'11111222,11111222,11111222' 
TABS,ioos:station:wmo:42044:1,2016-08-02T04:30:00Z,26.1914,-97.0507,0.0,4.955814767,139.1732904,5.94,'11111222,11111222,11111222' 
TABS,ioos:station:wmo:42044:1,2016-08-02T05:00:00Z,26.1914,-97.0507,0.0,4.967343354,146.24624,6.14,'11111222,11111222,11111222' 
TABS,ioos:station:wmo:42044:1,2016-08-02T05:30:00Z,26.1914,-97.0507,0.0,4.45,154.0110376,5.39,'11111222,11111222,11111222' 
TABS,ioos:station:wmo:42044:1,2016-08-02T06:00:00Z,26.1914,-97.0507,0.0,4.457319822,151.307747,5.44,'11111222,11111222,11111222' 
TABS,ioos:station:wmo:42044:1,2016-08-02T06:30:00Z,26.1914,-97.0507,0.0,4.698350774,151.5260734,5.77,'11111222,11111222,11111222' 
TABS,ioos:station:wmo:42044:1,2016-08-02T07:00:00Z,26.1914,-97.0507,0.0,4.495253052,149.6704469,5.34,'11111222,11111222,11111222' 
TABS,ioos:station:wmo:42044:1,2016-08-02T07:30:00Z,26.1914,-97.0507,0.0,4.248905741,158.7497546,4.84,'11111222,11111222,11111222' 
TABS,ioos:station:wmo:42044:1,2016-08-02T08:00:00Z,26.1914,-97.0507,0.0,4.050938163,161.8783926,4.71,'11111222,11111222,11111222' 
TABS,ioos:station:wmo:42044:1,2016-08-02T08:30:00Z,26.1914,-97.0507,0.0,3.884790857,157.9249743,4.56,'11111222,11111222,11111222' 
TABS,ioos:station:wmo:42044:1,2016-08-02T09:00:00Z,26.1914,-97.0507,0.0,3.958345614,159.5966851,4.8,'11111222,11111222,11111222' 
TABS,ioos:station:wmo:42044:1,2016-08-02T09:30:00Z,26.1914,-97.0507,0.0,3.251292051,172.0445805,3.86,'11111222,11111222,11111222' 
TABS,ioos:station:wmo:42044:1,2016-08-02T10:00:00Z,26.1914,-97.0507,0.0,2.943348433,174.5414355,3.6,'11111222,11111222,11111222' 
TABS,ioos:station:wmo:42044:1,2016-08-02T10:30:00Z,26.1914,-97.0507,0.0,3.017614952,166.9771612,3.7,'11111222,11111222,11111222' 
TABS,ioos:station:wmo:42044:1,2016-08-02T11:00:00Z,26.1914,-97.0507,0.0,2.636550777,165.278804,3.24,'11111222,11111222,11111222' 
TABS,ioos:station:wmo:42044:1,2016-08-02T11:30:00Z,26.1914,-97.0507,0.0,2.643274484,154.2107496,3.2,'11111222,11111222,11111222' 
TABS,ioos:station:wmo:42044:1,2016-08-02T12:00:00Z,26.1914,-97.0507,0.0,2.798463864,146.3670063,3.63,'11111222,11111222,11111222' 
TABS,ioos:station:wmo:42044:1,2016-08-02T12:30:00Z,26.1914,-97.0507,0.0,3.73430047,153.0921378,4.55,'11111222,11111222,11111222' 
TABS,ioos:station:wmo:42044:1,2016-08-02T13:00:00Z,26.1914,-97.0507,0.0,0.859592927,150.7514525,3.84,'11111222,11111222,11111222' 
TABS,ioos:station:wmo:42044:1,2016-08-02T13:30:00Z,26.1914,-97.0507,0.0,2.762679858,147.1155292,3.46,'11111222,11111222,11111222' 
TABS,ioos:station:wmo:42044:1,2016-08-02T14:00:00Z,26.1914,-97.0507,0.0,2.180825532,144.7069454,2.75,'11111222,11111222,11111222' 
TABS,ioos:station:wmo:42044:1,2016-08-02T14:30:00Z,26.1914,-97.0507,0.0,2.517935662,120.0274749,3.09,'11111222,11111222,11111222' 
TABS,ioos:station:wmo:42044:1,2016-08-02T15:00:00Z,26.1914,-97.0507,0.0,2.853296339,113.3307923,3.41,'11111222,11111222,11111222' 
TABS,ioos:station:wmo:42044:1,2016-08-02T15:30:00Z,26.1914,-97.0507,0.0,2.779100574,114.4443185,3.31,'11111222,11111222,11111222' 
TABS,ioos:station:wmo:42044:1,2016-08-02T16:00:00Z,26.1914,-97.0507,0.0,0.0,0.0,0.0,'11111222,11111222,11111222' 
TABS,ioos:station:wmo:42044:1,2016-08-02T16:30:00Z,26.1914,-97.0507,0.0,1.085034562,109.938366,3.38,'11111222,11111222,11111222' 
TABS,ioos:station:wmo:42044:1,2016-08-02T17:00:00Z,26.1914,-97.0507,0.0,3.191692341,120.5023017,3.93,'11111222,11111222,11111222' 
TABS,ioos:station:wmo:42044:1,2016-08-02T17:30:00Z,26.1914,-97.0507,0.0,3.658004921,126.7762538,4.5,'11111222,11111222,11111222' 
TABS,ioos:station:wmo:42044:1,2016-08-02T18:00:00Z,26.1914,-97.0507,0.0,3.671648131,128.5870265,4.71,'11111222,11111222,11111222' 
TABS,ioos:station:wmo:42044:1,2016-08-02T18:30:00Z,26.1914,-97.0507,0.0,3.827819222,130.9750355,4.78,'11111222,11111222,11111222' 
TABS,ioos:station:wmo:42044:1,2016-08-02T19:00:00Z,26.1914,-97.0507,0.0,3.918430808,128.888498,4.65,'11111222,11111222,11111222' 
TABS,ioos:station:wmo:42044:1,2016-08-02T19:30:00Z,26.1914,-97.0507,0.0,3.862071983,133.5315184,4.67,'11111222,11111222,11111222' 
TABS,ioos:station:wmo:42044:1,2016-08-02T20:00:00Z,26.1914,-97.0507,0.0,4.192040076,129.3859017,5.23,'11111222,11111222,11111222' 
TABS,ioos:station:wmo:42044:1,2016-08-02T20:30:00Z,26.1914,-97.0507,0.0,3.919209104,129.8246169,4.76,'11111222,11111222,11111222' 
TABS,ioos:station:wmo:42044:1,2016-08-02T21:00:00Z,26.1914,-97.0507,0.0,4.340518402,129.4847763,5.7,'11111222,11111222,11111222' 
TABS,ioos:station:wmo:42044:1,2016-08-02T21:30:00Z,26.1914,-97.0507,0.0,4.558069767,132.5107686,5.53,'11111222,11111222,11111222' 
TABS,ioos:station:wmo:42044:1,2016-08-02T22:00:00Z,26.1914,-97.0507,0.0,4.868921852,132.6698023,5.81,'11111222,11111222,11111222' 
TABS,ioos:station:wmo:42044:1,2016-08-02T22:30:00Z,26.1914,-97.0507,0.0,5.00252936,139.7841231,6.33,'11111222,11111222,11111222' 
TABS,ioos:station:wmo:42044:1,2016-08-02T23:00:00Z,26.1914,-97.0507,0.0,4.802082881,148.6272787,5.79,'11111222,11111222,11111222' 
TABS,ioos:station:wmo:42044:1,2016-08-02T23:30:00Z,26.1914,-97.0507,0.0,4.699723396,149.9983337,5.38,'11111222,11111222,11111222' 
TABS,ioos:station:wmo:42044:1,2016-08-03T00:00:00Z,26.1914,-97.0507,0.0,4.651075145,144.3623736,5.41,'11111222,11111222,11111222' 
TABS,ioos:station:wmo:42044:1,2016-08-03T00:30:00Z,26.1914,-97.0507,0.0,4.639062405,148.8458946,5.51,'11111222,11111222,11111222' 
TABS,ioos:station:wmo:42044:1,2016-08-03T01:00:00Z,26.1914,-97.0507,0.0,4.330184754,142.6011241,5.19,'11111222,11111222,11111222' 
TABS,ioos:station:wmo:42044:1,2016-08-03T01:30:00Z,26.1914,-97.0507,0.0,0.0,0.0,0.0,'11111222,11111222,11111222' 
TABS,ioos:station:wmo:42044:1,2016-08-03T02:00:00Z,26.1914,-97.0507,0.0,4.173463789,136.5537152,5.1,'11111222,11111222,11111222' 
TABS,ioos:station:wmo:42044:1,2016-08-03T02:30:00Z,26.1914,-97.0507,0.0,4.294007452,143.2371444,5.37,'11111222,11111222,11111222' 
TABS,ioos:station:wmo:42044:1,2016-08-03T03:00:00Z,26.1914,-97.0507,0.0,3.898166236,143.6595382,4.67,'11111222,11111222,11111222' 
TABS,ioos:station:wmo:42044:1,2016-08-03T03:30:00Z,26.1914,-97.0507,0.0,4.332435804,145.723347,5.15,'11111222,11111222,11111222' 
TABS,ioos:station:wmo:42044:1,2016-08-03T04:00:00Z,26.1914,-97.0507,0.0,4.230579157,147.5498684,5.28,'11111222,11111222,11111222' 
TABS,ioos:station:wmo:42044:1,2016-08-03T04:30:00Z,26.1914,-97.0507,0.0,4.222463736,152.3428521,5.05,'11111222,11111222,11111222' 
TABS,ioos:station:wmo:42044:1,2016-08-03T05:00:00Z,26.1914,-97.0507,0.0,3.691950704,155.5177818,4.26,'11111222,11111222,11111222' 
TABS,ioos:station:wmo:42044:1,2016-08-03T05:30:00Z,26.1914,-97.0507,0.0,3.242992445,152.2499634,3.72,'11111222,11111222,11111222' 
TABS,ioos:station:wmo:42044:1,2016-08-03T06:00:00Z,26.1914,-97.0507,0.0,3.79189926,141.3168947,4.6,'11111222,11111222,11111222' 
TABS,ioos:station:wmo:42044:1,2016-08-03T06:30:00Z,26.1914,-97.0507,0.0,3.860828927,141.9430945,4.73,'11111222,11111222,11111222' 
TABS,ioos:station:wmo:42044:1,2016-08-03T07:00:00Z,26.1914,-97.0507,0.0,3.571022263,149.9170817,4.36,'11111222,11111222,11111222' 
TABS,ioos:station:wmo:42044:1,2016-08-03T07:30:00Z,26.1914,-97.0507,0.0,4.072075638,150.0983291,4.83,'11111222,11111222,11111222' 
TABS,ioos:station:wmo:42044:1,2016-08-03T08:00:00Z,26.1914,-97.0507,0.0,4.477722635,156.2976199,5.25,'11111222,11111222,11111222' 
TABS,ioos:station:wmo:42044:1,2016-08-03T08:30:00Z,26.1914,-97.0507,0.0,4.730972416,156.8493808,5.7,'11111222,11111222,11111222' 
TABS,ioos:station:wmo:42044:1,2016-08-03T09:00:00Z,26.1914,-97.0507,0.0,4.356971425,154.7291535,5.24,'11111222,11111222,11111222' 
TABS,ioos:station:wmo:42044:1,2016-08-03T09:30:00Z,26.1914,-97.0507,0.0,4.687568666,154.4738645,5.46,'11111222,11111222,11111222' 
TABS,ioos:station:wmo:42044:1,2016-08-03T10:00:00Z,26.1914,-97.0507,0.0,4.048468846,157.4892633,4.74,'11111222,11111222,11111222' 
TABS,ioos:station:wmo:42044:1,2016-08-03T10:30:00Z,26.1914,-97.0507,0.0,3.829059937,158.3933563,4.6,'11111222,11111222,11111222' 
TABS,ioos:station:wmo:42044:1,2016-08-03T11:00:00Z,26.1914,-97.0507,0.0,4.149722882,160.4300213,5.2,'11111222,11111222,11111222' 
TABS,ioos:station:wmo:42044:1,2016-08-03T11:30:00Z,26.1914,-97.0507,0.0,4.040111385,163.3145889,5.11,'11111222,11111222,11111222' 
TABS,ioos:station:wmo:42044:1,2016-08-03T12:00:00Z,26.1914,-97.0507,0.0,3.794482837,159.320503,4.91,'11111222,11111222,11111222' 
TABS,ioos:station:wmo:42044:1,2016-08-03T12:30:00Z,26.1914,-97.0507,0.0,3.513303289,161.4105914,4.2,'11111222,11111222,11111222' 
TABS,ioos:station:wmo:42044:1,2016-08-03T13:00:00Z,26.1914,-97.0507,0.0,3.660122949,165.2805852,4.39,'11111222,11111222,11111222' 
TABS,ioos:station:wmo:42044:1,2016-08-03T13:30:00Z,26.1914,-97.0507,0.0,0.0,0.0,0.0,'11111222,11111222,11111222' 
TABS,ioos:station:wmo:42044:1,2016-08-03T14:00:00Z,26.1914,-97.0507,0.0,2.24537302,152.4081187,2.8,'11111222,11111222,11111222' 
TABS,ioos:station:wmo:42044:1,2016-08-03T14:30:00Z,26.1914,-97.0507,0.0,1.573086139,157.1842772,1.88,'11111222,11111222,11111222' 
TABS,ioos:station:wmo:42044:1,2016-08-03T15:00:00Z,26.1914,-97.0507,0.0,1.486068639,151.0205705,1.73,'11111222,11111222,11111222' 
TABS,ioos:station:wmo:42044:1,2016-08-03T15:30:00Z,26.1914,-97.0507,0.0,1.479222769,137.4660689,2.02,'11111222,11111222,11111222' 
TABS,ioos:station:wmo:42044:1,2016-08-03T16:00:00Z,26.1914,-97.0507,0.0,1.796941847,133.1963248,2.35,'11111222,11111222,11111222' 
TABS,ioos:station:wmo:42044:1,2016-08-03T16:30:00Z,26.1914,-97.0507,0.0,2.53931093,133.5642354,3.42,'11111222,11111222,11111222' 
TABS,ioos:station:wmo:42044:1,2016-08-03T17:00:00Z,26.1914,-97.0507,0.0,0.0,0.0,0.0,'11111222,11111222,11111222' 
TABS,ioos:station:wmo:42044:1,2016-08-03T17:30:00Z,26.1914,-97.0507,0.0,3.922307994,113.7552081,4.59,'11111222,11111222,11111222' 
TABS,ioos:station:wmo:42044:1,2016-08-03T18:00:00Z,26.1914,-97.0507,0.0,4.280864399,115.3083405,5.28,'11111222,11111222,11111222' 
TABS,ioos:station:wmo:42044:1,2016-08-03T18:30:00Z,26.1914,-97.0507,0.0,4.271826307,115.3656765,5.17,'11111222,11111222,11111222' 
TABS,ioos:station:wmo:42044:1,2016-08-03T19:00:00Z,26.1914,-97.0507,0.0,4.829958592,111.6255535,5.81,'11111222,11111222,11111222' 
TABS,ioos:station:wmo:42044:1,2016-08-03T19:30:00Z,26.1914,-97.0507,0.0,4.46153561,119.840805,5.28,'11111222,11111222,11111222' 
TABS,ioos:station:wmo:42044:1,2016-08-03T20:00:00Z,26.1914,-97.0507,0.0,4.660139483,117.0602737,5.54,'11111222,11111222,11111222' 
TABS,ioos:station:wmo:42044:1,2016-08-03T20:30:00Z,26.1914,-97.0507,0.0,5.258564443,123.5997521,6.41,'11111222,11111222,11111222' 
TABS,ioos:station:wmo:42044:1,2016-08-03T21:00:00Z,26.1914,-97.0507,0.0,5.172620226,120.4321979,6.36,'11111222,11111222,11111222' 
TABS,ioos:station:wmo:42044:1,2016-08-03T21:30:00Z,26.1914,-97.0507,0.0,4.902417771,126.1222289,6.01,'11111222,11111222,11111222' 
TABS,ioos:station:wmo:42044:1,2016-08-03T22:00:00Z,26.1914,-97.0507,0.0,3.396115428,127.3426239,5.89,'11111222,11111222,11111222' 
TABS,ioos:station:wmo:42044:1,2016-08-03T22:30:00Z,26.1914,-97.0507,0.0,4.697744139,128.4315669,5.82,'11111222,11111222,11111222' 
TABS,ioos:station:wmo:42044:1,2016-08-03T23:00:00Z,26.1914,-97.0507,0.0,4.739039987,118.6204627,5.7,'11111222,11111222,11111222' 
TABS,ioos:station:wmo:42044:1,2016-08-03T23:30:00Z,26.1914,-97.0507,0.0,4.93315315,108.4353266,6.27,'11111222,11111222,11111222' 
TABS,ioos:station:wmo:42044:1,2016-08-04T00:00:00Z,26.1914,-97.0507,0.0,5.657994344,113.2122539,6.97,'11111222,11111222,11111222' 
TABS,ioos:station:wmo:42044:1,2016-08-04T00:30:00Z,26.1914,-97.0507,0.0,5.940042087,119.8888005,6.93,'11111222,11111222,11111222' 
TABS,ioos:station:wmo:42044:1,2016-08-04T01:00:00Z,26.1914,-97.0507,0.0,5.48493391,119.3694864,6.56,'11111222,11111222,11111222' 
TABS,ioos:station:wmo:42044:1,2016-08-04T01:30:00Z,26.1914,-97.0507,0.0,5.469232122,120.5508793,6.7,'11111222,11111222,11111222' 
TABS,ioos:station:wmo:42044:1,2016-08-04T02:00:00Z,26.1914,-97.0507,0.0,5.282745498,120.1084545,6.47,'11111222,11111222,11111222' 
TABS,ioos:station:wmo:42044:1,2016-08-04T02:30:00Z,26.1914,-97.0507,0.0,5.34394985,121.2215292,6.51,'11111222,11111222,11111222' 
TABS,ioos:station:wmo:42044:1,2016-08-04T03:00:00Z,26.1914,-97.0507,0.0,5.534663495,120.2716906,6.74,'11111222,11111222,11111222' 
TABS,ioos:station:wmo:42044:1,2016-08-04T03:30:00Z,26.1914,-97.0507,0.0,5.429963167,125.3294903,6.87,'11111222,11111222,11111222' 
TABS,ioos:station:wmo:42044:1,2016-08-04T04:00:00Z,26.1914,-97.0507,0.0,4.94813096,126.4533757,5.81,'11111222,11111222,11111222' 
TABS,ioos:station:wmo:42044:1,2016-08-04T04:30:00Z,26.1914,-97.0507,0.0,5.224098008,127.2211967,6.3,'11111222,11111222,11111222' 
TABS,ioos:station:wmo:42044:1,2016-08-04T05:00:00Z,26.1914,-97.0507,0.0,4.801416458,129.5919962,5.79,'11111222,11111222,11111222' 
TABS,ioos:station:wmo:42044:1,2016-08-04T05:30:00Z,26.1914,-97.0507,0.0,4.824541429,133.3205729,5.69,'11111222,11111222,11111222' 
TABS,ioos:station:wmo:42044:1,2016-08-04T06:00:00Z,26.1914,-97.0507,0.0,4.494185132,132.5655894,5.32,'11111222,11111222,11111222' 
TABS,ioos:station:wmo:42044:1,2016-08-04T06:30:00Z,26.1914,-97.0507,0.0,4.611832608,128.4855166,5.71,'11111222,11111222,11111222' 
TABS,ioos:station:wmo:42044:1,2016-08-04T07:00:00Z,26.1914,-97.0507,0.0,4.799927083,125.2466138,6.1,'11111222,11111222,11111222' 
TABS,ioos:station:wmo:42044:1,2016-08-04T07:30:00Z,26.1914,-97.0507,0.0,4.8120266,127.0607409,6.0,'11111222,11111222,11111222' 
TABS,ioos:station:wmo:42044:1,2016-08-04T08:00:00Z,26.1914,-97.0507,0.0,5.084850047,139.386789,6.01,'11111222,11111222,11111222' 
TABS,ioos:station:wmo:42044:1,2016-08-04T08:30:00Z,26.1914,-97.0507,0.0,4.560668811,145.0906081,5.49,'11111222,11111222,11111222' 
TABS,ioos:station:wmo:42044:1,2016-08-04T09:00:00Z,26.1914,-97.0507,0.0,4.723430956,149.743844,5.63,'11111222,11111222,11111222' 
TABS,ioos:station:wmo:42044:1,2016-08-04T09:30:00Z,26.1914,-97.0507,0.0,4.704944208,154.0342985,5.58,'11111222,11111222,11111222' 
TABS,ioos:station:wmo:42044:1,2016-08-04T10:00:00Z,26.1914,-97.0507,0.0,4.342257477,159.2280044,5.15,'11111222,11111222,11111222' 
TABS,ioos:station:wmo:42044:1,2016-08-04T10:30:00Z,26.1914,-97.0507,0.0,4.210997507,169.4641622,5.14,'11111222,11111222,11111222' 
TABS,ioos:station:wmo:42044:1,2016-08-04T11:00:00Z,26.1914,-97.0507,0.0,3.430014577,173.8076073,4.32,'11111222,11111222,11111222' 
TABS,ioos:station:wmo:42044:1,2016-08-04T11:30:00Z,26.1914,-97.0507,0.0,3.204777683,169.3915625,3.92,'11111222,11111222,11111222' 
TABS,ioos:station:wmo:42044:1,2016-08-04T12:00:00Z,26.1914,-97.0507,0.0,2.590463279,160.3761886,3.18,'11111222,11111222,11111222' 
TABS,ioos:station:wmo:42044:1,2016-08-04T12:30:00Z,26.1914,-97.0507,0.0,2.626175927,157.1454439,3.18,'11111222,11111222,11111222' 
TABS,ioos:station:wmo:42044:1,2016-08-04T13:00:00Z,26.1914,-97.0507,0.0,0.553172667,139.3990108,3.13,'11111222,11111222,11111222' 
TABS,ioos:station:wmo:42044:1,2016-08-04T13:30:00Z,26.1914,-97.0507,0.0,2.528418478,144.1728472,3.2,'11111222,11111222,11111222' 
TABS,ioos:station:wmo:42044:1,2016-08-04T14:00:00Z,26.1914,-97.0507,0.0,2.834678112,141.8771303,3.45,'11111222,11111222,11111222' 
TABS,ioos:station:wmo:42044:1,2016-08-04T14:30:00Z,26.1914,-97.0507,0.0,2.478003228,143.0379122,3.09,'11111222,11111222,11111222' 
TABS,ioos:station:wmo:42044:1,2016-08-04T15:00:00Z,26.1914,-97.0507,0.0,2.980738164,130.1012347,3.5,'11111222,11111222,11111222' 
TABS,ioos:station:wmo:42044:1,2016-08-04T15:30:00Z,26.1914,-97.0507,0.0,3.087296552,120.1365588,3.72,'11111222,11111222,11111222' 
TABS,ioos:station:wmo:42044:1,2016-08-04T16:00:00Z,26.1914,-97.0507,0.0,3.099822576,115.4080796,3.86,'11111222,11111222,11111222' 
TABS,ioos:station:wmo:42044:1,2016-08-04T16:30:00Z,26.1914,-97.0507,0.0,3.889730068,125.1613013,4.5,'11111222,11111222,11111222' 
TABS,ioos:station:wmo:42044:1,2016-08-04T17:00:00Z,26.1914,-97.0507,0.0,0.0,0.0,0.0,'11111222,11111222,11111222' 
TABS,ioos:station:wmo:42044:1,2016-08-04T17:30:00Z,26.1914,-97.0507,0.0,3.86896627,136.3617475,5.0,'11111222,11111222,11111222' 
TABS,ioos:station:wmo:42044:1,2016-08-04T18:00:00Z,26.1914,-97.0507,0.0,4.169904076,137.8190475,5.16,'11111222,11111222,11111222' 
TABS,ioos:station:wmo:42044:1,2016-08-04T18:30:00Z,26.1914,-97.0507,0.0,4.186669321,135.9680555,5.23,'11111222,11111222,11111222' 
TABS,ioos:station:wmo:42044:1,2016-08-04T19:00:00Z,26.1914,-97.0507,0.0,4.52727291,133.3893003,5.46,'11111222,11111222,11111222' 